Find Local Weather

World > North America > United States > California

La Jolla, California Regional Weather

Lat: 32.85N, Lon: 117.27W
Wx Zone: CAZ043
Warning FLW WEATHER ALERT - (More Info. Click Here) Warning
Feedback
Expires:201812151100;;825396
ASUS46 KSGX 151011
RWRSGX

SAN DIEGO HOURLY WEATHER ROUNDUP
NATIONAL WEATHER SERVICE SAN DIEGO CA
200 AM PST SAT DEC 15 2018

NOTE: "FAIR" INDICATES FEW OR NO CLOUDS BELOW 12,000 FEET WITH NO 
SIGNIFICANT WEATHER AND/OR OBSTRUCTIONS TO VISIBILITY.


CAZ042-043-060-061-PZZ750-775-151100-

GREATER SAN DIEGO AREA
  
CITY           SKY/WX    TMP DP  RH WIND       PRES   REMARKS
SAN DIEGO AP   CLOUDY    59  44  57 N6        30.08F                  
NATIONAL CITY    N/A     56  44  62 CALM      30.07F                  
CHULA VISTA      N/A     54  44  71 CALM      29.98F                  
IMPERIAL BEACH CLOUDY    53  44  71 SE3       30.07F                  
BROWN FIELD    CLOUDY    58  35  42 CALM      30.05F                  
MIRAMAR MCAS   CLOUDY    58  42  55 N6        30.07S                  
MONTGOMERY FLD CLOUDY    56  41  57 N6        30.07F                  
GILLESPIE FLD    N/A     54  45  71 CALM      30.06F                  

$$

NORTH SAN DIEGO COUNTY
  
CITY           SKY/WX    TMP DP  RH WIND       PRES   REMARKS
CAMP PENDLETON CLOUDY    50  38  63 NE3       30.08S                  
OCEANSIDE AP   CLOUDY    52  43  71 N7        30.09R                  
OCEANSIDE HBR    N/A     55  45  68 CALM      30.11R                  
VISTA            N/A     51  42  71 CALM      30.06F                  
CARLSBAD       CLOUDY    56  39  53 N3        30.07S                  
DEL MAR          N/A     55  49  79 E1        30.08F                  
LA JOLLA SCRIP   N/A     58  55  88 CALM      30.07S                  
FALLBROOK      FAIR      55  28  35 N7        30.09S                  
ESCONDIDO        N/A     53  40  61 CALM      30.09S                  
SAN MARCOS       N/A     55  38  53 CALM      30.11F                  
POWAY            N/A     52  43  73 CALM      30.10F                  

$$

EAST SAN DIEGO COUNTY
  
CITY           SKY/WX    TMP DP  RH WIND       PRES   REMARKS
RAMONA         CLOUDY    49  36  61 E5        30.08S                  
LA MESA          N/A     57  36  44 CALM      30.01F                  
JAMUL            N/A     55  34  45 CALM      30.07F                  
CAMPO            N/A     53  21  28 N9        30.07S                  

$$

ORANGE COUNTY AND THE LOS ANGELES BASIN
  
CITY           SKY/WX    TMP DP  RH WIND       PRES   REMARKS
JOHN WAYNE AP  MOCLDY    54  45  71 CALM      30.09F                  
LAKE FOREST FR   N/A     55  17  22 NE2       29.98R                  
HUNTINGTON BCH   N/A     50  48  92 CALM      30.10F                  
LOS ALAMITOS   FAIR      48  46  91 CALM      30.08F                  
FULLERTON      PTCLDY    52  43  71 CALM      30.08S                  
LONG BEACH     PTCLDY    55  50  83 W5        30.09F                  
L.A. AP        PTCLDY    57  40  52 W5        30.09F                  
L.A. DOWNTOWN  CLEAR     53  40  61 CALM      30.09F                  

$$

THE INLAND EMPIRE
  
CITY           SKY/WX    TMP DP  RH WIND       PRES   REMARKS
CORONA         PTCLDY   N/A N/A N/A MISG        N/A                   
CHINO          PTCLDY    51  37  58 E3        30.11F                  
ONTARIO        MOCLDY    50  31  48 E5        30.10F                  
SAN BERNARDINO FAIR      50  34  53 E7        30.12S                  
RIVERSIDE AP   PTCLDY    50  33  52 SE6       30.12R                  
MORENO VALLEY    N/A     56  29  36 CALM      28.23S                  
MARCH ARB      MOCLDY    45  35  68 NW7       30.12R                  
HEMET EAST       N/A     53  10  18 CALM      30.04S                  
FRENCH VALLEY  FAIR      48  32  53 NE6       30.13R                  
TEMECULA         N/A     49  43  80 NE1       30.12R                  

$$

SAN BERNARDINO AND RIVERSIDE COUNTY MOUNTAINS
  
CITY           SKY/WX    TMP DP  RH WIND       PRES   REMARKS
BIG BEAR AP    CLOUDY    32  23  69 CALM      30.21F                  
ANGELUS OAKS     N/A     44  19  36 CALM      30.11S                  

$$

SOUTHERN DESERT INCLUDING THE COACHELLA VALLEY
  
CITY           SKY/WX    TMP DP  RH WIND       PRES   REMARKS
PALM SPRINGS   CLOUDY    52  30  43 N6        30.14S                  
THOUSAND PALMS   N/A     49  35  57 N1        30.10S                  
PALM DESERT      N/A     50  42  73 CALM      27.59S                  
THERMAL        CLOUDY    50  38  63 W6        30.11F                  
BORREGO AP     FAIR      46  39  76 CALM      30.11F                  
IMPERIAL AP    CLOUDY    51  41  68 CALM      30.12S                  
EL CENTRO NAS  CLOUDY    51  38  60 CALM      30.13F                  
YUMA AZ        CLOUDY    54  31  41 CALM      30.11F                  

$$

UPPER DESERT
  
CITY           SKY/WX    TMP DP  RH WIND       PRES   REMARKS
HESPERIA         N/A     40  32  71 W1        30.28F                  
APPLE VALLEY     N/A     37  31  81 SE3       30.29R                  
PALMDALE       CLEAR     36  30  79 W3        30.18F                  
LANCASTER      CLEAR     29  27  92 NW5       30.20R WCI  24          
EDWARDS AFB    CLEAR     32  32 100 CALM      30.17R                  
DAGGETT        PTCLDY    44  28  53 W10       30.19R                  
29 PALMS N     CLOUDY    44  31  60 NW7       30.23R                  
NEEDLES        CLOUDY    53  24  32 N5        30.16S                  

$$

REGIONAL REPORTS
  
CITY           SKY/WX    TMP DP  RH WIND       PRES   REMARKS
SANTA BARBARA  CLEAR     42  40  92 CALM      30.10F                  
SANDBERG       CLEAR     50   3  14 SE5       30.18S                  
LAS VEGAS NV   CLOUDY    50  19  29 SW3       30.19R                  
PHOENIX AZ     MOCLDY    50  31  48 CALM      30.12S                  
TIJUANA        PTCLDY    61  28  29 N3        30.08F                  

$$

OFFSHORE ISLANDS
  
CITY           SKY/WX    TMP DP  RH WIND       PRES   REMARKS
CATALINA ARPT  PTCLDY    53  53 100 NW8       30.12S FOG              
SAN CLEMENTE I MOCLDY    57  57 100 N7        30.11F                  
SAN NICOLAS IS PTCLDY    53  32  44 NW6       30.10F                  

$$

MARINE AND OFFSHORE BUOY REPORTS
  
STATION/POSITION SKY/WX   TEMP    WIND        PRES    VSBY  SWELL
                          AIR SEA DIR/SP/G                  HT/PER/DIR
                          (F)     (DEG/KT/KT) (MB)    (MI)  (FT/S/D)
TANNER BANKS               60 62              1019.4F
S CLEMENTE BASIN           62 63  330/ 12/ 14 1019.0R         5/290/15
SAN NICOLAS IS.               62                N/A           7/300/15
SO. S. ROSA ISLA           59 61  320/  8/ 10 1019.3F         8/290/15
W. S. BARBARA CH                              1019.5
M. S. BARBARA CH           59 61  280/  6/  8 1019.8F         5/270/14
S. MONICA BASIN            60 62  320/ 10/ 12 1018.7F         3/220/14
S PEDRO CHANNEL               62                N/A           2/210/14
OCEANSIDE OFFSHR              63                N/A           2/220/13
TORREY PINES OTR              64                N/A           3/260/14
SAN DIEGO BAY                                 1017.9F
IMPERIAL BEACH                62                N/A           3/270/15
POINT LOMA SOUTH              64                N/A           3/260/13

$$

  

SKY/WX - Weather  TMP - Temperature  DP - Dew Point  RH - Relative Humidity
WIND - Wind Direction/Speed PRES - Barometric Pressure